| time (UTC) | temp F | wind direction | speed MPH | gust MPH | rain 1hr in | rain 24hr in | rain mn in | humidity % | barometer mb |
| 20260906082029 | 57 | 290 | 8.0 | 16.0 | 0.00 | 0.01 | 0.00 | 74 | 1020.7 |
| 20260906081527 | 57 | 287 | 8.0 | 17.0 | 0.00 | 0.01 | 0.00 | 74 | 1020.7 |
| 20260906081025 | 57 | 285 | 6.0 | 17.0 | 0.00 | 0.01 | 0.00 | 75 | 1020.8 |
| 20260906080523 | 56 | 283 | 5.0 | 14.0 | 0.00 | 0.01 | 0.00 | 75 | 1020.8 |
| 20260906080053 | 56 | 282 | 8.0 | 15.0 | 0.00 | 0.01 | 0.00 | 75 | 1020.7 |
| 20260906080021 | 56 | 282 | 8.0 | 15.0 | 0.00 | 0.01 | 0.00 | 75 | 1020.7 |
| 20260906075519 | 56 | 289 | 6.0 | 15.0 | 0.00 | 0.01 | 0.00 | 75 | 1020.7 |
| 20260906075017 | 56 | 280 | 7.0 | 14.0 | 0.00 | 0.01 | 0.00 | 75 | 1020.6 |
| 20260906074535 | 56 | 292 | 7.0 | 16.0 | 0.00 | 0.01 | 0.00 | 75 | 1020.6 |
| 20260906074033 | 56 | 293 | 7.0 | 13.0 | 0.00 | 0.01 | 0.00 | 75 | 1020.4 |
| 20260906073531 | 56 | 280 | 9.0 | 18.0 | 0.00 | 0.01 | 0.00 | 74 | 1020.5 |
| 20260906073029 | 56 | 284 | 6.0 | 11.0 | 0.00 | 0.01 | 0.00 | 74 | 1020.4 |
| 20260906072527 | 57 | 267 | 11.0 | 26.0 | 0.00 | 0.01 | 0.00 | 73 | 1020.3 |
| 20260906072025 | 57 | 271 | 6.0 | 17.0 | 0.00 | 0.01 | 0.00 | 73 | 1020.3 |
| 20260906071523 | 57 | 293 | 6.0 | 11.0 | 0.00 | 0.01 | 0.00 | 73 | 1020.1 |
| 20260906071021 | 57 | 294 | 7.0 | 21.0 | 0.00 | 0.01 | 0.00 | 73 | 1020.2 |
| 20260906070519 | 57 | 288 | 9.0 | 22.0 | 0.00 | 0.01 | 0.00 | 73 | 1020.1 |
| 20260906070017 | 56 | 284 | 7.0 | 18.0 | 0.00 | 0.01 | 0.00 | 74 | 1020.0 |
| 20260906065535 | 56 | 279 | 7.0 | 15.0 | 0.00 | 0.01 | 0.00 | 74 | 1020.0 |
| 20260906065034 | 56 | 289 | 7.0 | 13.0 | 0.00 | 0.01 | 0.00 | 74 | 1019.9 |
| 20260906064531 | 56 | 299 | 7.0 | 15.0 | 0.00 | 0.01 | 0.00 | 74 | 1019.8 |
| 20260906064030 | 56 | 283 | 8.0 | 16.0 | 0.00 | 0.01 | 0.00 | 74 | 1019.8 |
| 20260906063528 | 56 | 290 | 9.0 | 18.0 | 0.00 | 0.01 | 0.00 | 74 | 1019.7 |
| 20260906063026 | 56 | 283 | 8.0 | 17.0 | 0.00 | 0.01 | 0.00 | 74 | 1019.6 |
| 20260906062524 | 56 | 282 | 8.0 | 15.0 | 0.00 | 0.01 | 0.00 | 74 | 1019.7 |
| 20260906062022 | 56 | 297 | 7.0 | 16.0 | 0.00 | 0.01 | 0.00 | 74 | 1019.7 |
| 20260906061520 | 56 | 276 | 10.0 | 17.0 | 0.00 | 0.01 | 0.00 | 74 | 1019.6 |
| 20260906061018 | 56 | 284 | 6.0 | 14.0 | 0.00 | 0.01 | 0.00 | 74 | 1019.6 |
| 20260906060516 | 56 | 280 | 9.0 | 21.0 | 0.00 | 0.01 | 0.00 | 74 | 1019.5 |
| 20260906060035 | 56 | 281 | 9.0 | 26.0 | 0.00 | 0.01 | 0.00 | 74 | 1019.4 |
| 20260906055533 | 56 | 277 | 8.0 | 21.0 | 0.00 | 0.01 | 0.00 | 75 | 1019.3 |
| 20260906055031 | 56 | 292 | 7.0 | 15.0 | 0.00 | 0.01 | 0.00 | 76 | 1019.3 |
| 20260906054529 | 56 | 294 | 7.0 | 21.0 | 0.00 | 0.01 | 0.00 | 76 | 1019.2 |
| 20260906054027 | 56 | 280 | 7.0 | 14.0 | 0.00 | 0.01 | 0.00 | 77 | 1019.2 |
| 20260906053525 | 56 | 275 | 8.0 | 18.0 | 0.00 | 0.01 | 0.00 | 77 | 1019.2 |
| 20260906053023 | 56 | 280 | 6.0 | 13.0 | 0.00 | 0.01 | 0.00 | 77 | 1019.2 |
| 20260906052522 | 56 | 287 | 7.0 | 18.0 | 0.00 | 0.01 | 0.00 | 78 | 1019.1 |
| 20260906052019 | 56 | 287 | 7.0 | 16.0 | 0.00 | 0.01 | 0.00 | 78 | 1019.1 |
| 20260906051518 | 56 | 292 | 8.0 | 16.0 | 0.00 | 0.01 | 0.00 | 78 | 1019.0 |
| 20260906051049 | 56 | 294 | 7.0 | 15.0 | 0.00 | 0.01 | 0.00 | 78 | 1019.1 |
| 20260906051015 | 56 | 294 | 7.0 | 15.0 | 0.00 | 0.01 | 0.00 | 78 | 1019.1 |
| 20260906050534 | 56 | 283 | 7.0 | 19.0 | 0.00 | 0.01 | 0.00 | 78 | 1018.9 |
| 20260906050032 | 56 | 279 | 6.0 | 14.0 | 0.00 | 0.01 | 0.00 | 78 | 1018.9 |
| 20260906045530 | 56 | 283 | 7.0 | 14.0 | 0.00 | 0.01 | 0.00 | 78 | 1018.9 |
| 20260906045028 | 56 | 281 | 7.0 | 16.0 | 0.00 | 0.01 | 0.00 | 78 | 1018.9 |
| 20260906044526 | 56 | 275 | 6.0 | 13.0 | 0.00 | 0.01 | 0.00 | 78 | 1018.8 |
| 20260906044024 | 56 | 279 | 8.0 | 14.0 | 0.00 | 0.01 | 0.00 | 78 | 1018.8 |
| 20260906043523 | 56 | 281 | 7.0 | 15.0 | 0.00 | 0.01 | 0.00 | 78 | 1018.8 |
| 20260906043415 | 56 | 281 | 8.0 | 21.0 | 0.00 | 0.01 | 0.00 | 78 | 1018.6 |
| 20260906043021 | 56 | 281 | 8.0 | 21.0 | 0.00 | 0.01 | 0.00 | 78 | 1018.6 |
| 20260906042518 | 56 | 284 | 8.0 | 19.0 | 0.00 | 0.01 | 0.00 | 79 | 1018.6 |
| 20260906042017 | 56 | 285 | 8.0 | 16.0 | 0.00 | 0.01 | 0.00 | 79 | 1018.5 |
| 20260906041535 | 56 | 274 | 8.0 | 23.0 | 0.00 | 0.01 | 0.00 | 79 | 1018.5 |
| 20260906041033 | 56 | 287 | 6.0 | 18.0 | 0.00 | 0.01 | 0.00 | 78 | 1018.4 |
| 20260906040531 | 56 | 291 | 8.0 | 17.0 | 0.00 | 0.01 | 0.00 | 79 | 1018.4 |
| 20260906040029 | 56 | 290 | 8.0 | 16.0 | 0.00 | 0.01 | 0.00 | 79 | 1018.2 |
| 20260906035527 | 56 | 289 | 7.0 | 14.0 | 0.00 | 0.01 | 0.00 | 79 | 1018.2 |
| 20260906035025 | 56 | 276 | 6.0 | 14.0 | 0.00 | 0.01 | 0.00 | 79 | 1018.2 |
| 20260906034523 | 56 | 270 | 7.0 | 13.0 | 0.00 | 0.01 | 0.00 | 79 | 1018.2 |
| 20260906034021 | 56 | 282 | 6.0 | 16.0 | 0.00 | 0.01 | 0.00 | 78 | 1018.2 |
| 20260906033519 | 56 | 277 | 7.0 | 13.0 | 0.00 | 0.01 | 0.00 | 78 | 1018.1 |
| 20260906033018 | 56 | 290 | 9.0 | 23.0 | 0.00 | 0.01 | 0.00 | 78 | 1018.0 |
| 20260906032516 | 56 | 293 | 5.0 | 11.0 | 0.00 | 0.01 | 0.00 | 79 | 1018.0 |
| 20260906032034 | 56 | 281 | 7.0 | 15.0 | 0.00 | 0.01 | 0.00 | 79 | 1018.0 |
| 20260906031532 | 56 | 286 | 7.0 | 16.0 | 0.00 | 0.01 | 0.00 | 79 | 1017.9 |
| 20260906031030 | 56 | 288 | 6.0 | 14.0 | 0.00 | 0.01 | 0.00 | 79 | 1017.9 |
| 20260906030528 | 56 | 280 | 6.0 | 17.0 | 0.00 | 0.01 | 0.00 | 79 | 1017.9 |
| 20260906030026 | 56 | 283 | 5.0 | 11.0 | 0.00 | 0.01 | 0.00 | 80 | 1017.8 |
| 20260906025524 | 56 | 280 | 7.0 | 11.0 | 0.00 | 0.01 | 0.00 | 80 | 1018.0 |
| 20260906025022 | 56 | 291 | 7.0 | 19.0 | 0.00 | 0.01 | 0.00 | 80 | 1017.8 |
| 20260906024520 | 56 | 287 | 7.0 | 18.0 | 0.00 | 0.01 | 0.00 | 80 | 1017.8 |
| 20260906024018 | 56 | 282 | 8.0 | 15.0 | 0.00 | 0.01 | 0.00 | 80 | 1017.7 |
| 20260906023517 | 56 | 287 | 6.0 | 15.0 | 0.00 | 0.02 | 0.00 | 80 | 1017.8 |
| 20260906023035 | 56 | 285 | 5.0 | 11.0 | 0.00 | 0.02 | 0.00 | 80 | 1017.8 |
| 20260906022533 | 56 | 278 | 6.0 | 15.0 | 0.00 | 0.02 | 0.00 | 80 | 1017.7 |
| 20260906022031 | 56 | 285 | 5.0 | 11.0 | 0.00 | 0.02 | 0.00 | 80 | 1017.7 |
| 20260906021529 | 56 | 288 | 6.0 | 13.0 | 0.00 | 0.02 | 0.00 | 80 | 1017.7 |
| 20260906021028 | 56 | 290 | 6.0 | 15.0 | 0.00 | 0.02 | 0.00 | 80 | 1017.7 |
| 20260906020526 | 56 | 270 | 7.0 | 18.0 | 0.00 | 0.02 | 0.00 | 80 | 1017.7 |
| 20260906020024 | 56 | 285 | 6.0 | 11.0 | 0.00 | 0.02 | 0.00 | 80 | 1017.7 |
| 20260906015522 | 56 | 288 | 6.0 | 13.0 | 0.00 | 0.02 | 0.00 | 80 | 1017.6 |
| 20260906015020 | 56 | 287 | 6.0 | 11.0 | 0.00 | 0.02 | 0.00 | 80 | 1017.7 |
| 20260906014519 | 56 | 282 | 6.0 | 16.0 | 0.00 | 0.02 | 0.00 | 80 | 1017.5 |
| 20260906014016 | 56 | 280 | 8.0 | 17.0 | 0.00 | 0.02 | 0.00 | 80 | 1017.6 |
| 20260906013534 | 56 | 290 | 7.0 | 15.0 | 0.00 | 0.02 | 0.00 | 80 | 1017.6 |
| 20260906013033 | 56 | 282 | 6.0 | 16.0 | 0.00 | 0.02 | 0.00 | 80 | 1017.5 |
| 20260906012531 | 56 | 285 | 9.0 | 17.0 | 0.00 | 0.02 | 0.00 | 80 | 1017.5 |
| 20260906012029 | 56 | 287 | 7.0 | 15.0 | 0.00 | 0.02 | 0.00 | 80 | 1017.6 |
| 20260906011527 | 56 | 271 | 8.0 | 15.0 | 0.00 | 0.02 | 0.00 | 80 | 1017.6 |
| 20260906011025 | 56 | 285 | 5.0 | 11.0 | 0.00 | 0.02 | 0.00 | 80 | 1017.5 |
| 20260906010524 | 56 | 271 | 7.0 | 13.0 | 0.00 | 0.02 | 0.00 | 80 | 1017.5 |
| 20260906010022 | 56 | 288 | 7.0 | 18.0 | 0.00 | 0.02 | 0.00 | 80 | 1017.5 |
| 20260906005520 | 56 | 273 | 7.0 | 14.0 | 0.00 | 0.02 | 0.00 | 80 | 1017.5 |
| 20260906005018 | 56 | 294 | 7.0 | 15.0 | 0.00 | 0.02 | 0.00 | 80 | 1017.5 |
| 20260906004516 | 56 | 281 | 7.0 | 15.0 | 0.00 | 0.03 | 0.00 | 80 | 1017.6 |
| 20260906004034 | 56 | 291 | 8.0 | 23.0 | 0.00 | 0.03 | 0.00 | 80 | 1017.4 |
| 20260906003532 | 56 | 288 | 6.0 | 10.0 | 0.00 | 0.03 | 0.00 | 81 | 1017.4 |
| 20260906003031 | 56 | 284 | 5.0 | 11.0 | 0.00 | 0.03 | 0.00 | 80 | 1017.4 |
| 20260906002529 | 56 | 289 | 6.0 | 13.0 | 0.00 | 0.03 | 0.00 | 80 | 1017.5 |
| 20260906002027 | 56 | 286 | 7.0 | 17.0 | 0.00 | 0.03 | 0.00 | 80 | 1017.3 |
| 20260906001525 | 56 | 291 | 6.0 | 11.0 | 0.00 | 0.03 | 0.00 | 80 | 1017.4 |
| 20260906001023 | 56 | 278 | 5.0 | 10.0 | 0.00 | 0.03 | 0.00 | 80 | 1017.3 |
| 20260906000521 | 56 | 298 | 6.0 | 14.0 | 0.00 | 0.04 | 0.00 | 80 | 1017.2 |
| 20260906000019 | 56 | 290 | 6.0 | 14.0 | 0.00 | 0.04 | 0.00 | 80 | 1017.3 |
| 20260905235518 | 56 | 296 | 7.0 | 16.0 | 0.00 | 0.05 | 0.00 | 79 | 1017.4 |
| 20260905235015 | 56 | 301 | 7.0 | 15.0 | 0.00 | 0.05 | 0.00 | 80 | 1017.3 |
| 20260905234534 | 56 | 281 | 6.0 | 13.0 | 0.00 | 0.05 | 0.00 | 80 | 1017.2 |
| 20260905234032 | 56 | 281 | 6.0 | 13.0 | 0.00 | 0.05 | 0.00 | 80 | 1017.2 |
| 20260905233530 | 56 | 299 | 6.0 | 14.0 | 0.00 | 0.05 | 0.00 | 80 | 1017.2 |
| 20260905233028 | 56 | 283 | 5.0 | 17.0 | 0.00 | 0.05 | 0.00 | 80 | 1017.3 |
| 20260905232526 | 56 | 283 | 7.0 | 14.0 | 0.00 | 0.05 | 0.00 | 80 | 1017.3 |
| 20260905232025 | 56 | 287 | 6.0 | 16.0 | 0.00 | 0.05 | 0.00 | 80 | 1017.2 |
| 20260905231523 | 56 | 285 | 7.0 | 15.0 | 0.00 | 0.05 | 0.00 | 79 | 1017.2 |
| 20260905231021 | 56 | 286 | 6.0 | 14.0 | 0.00 | 0.05 | 0.00 | 79 | 1017.1 |
| 20260905230519 | 56 | 275 | 6.0 | 15.0 | 0.00 | 0.05 | 0.00 | 79 | 1017.1 |
| 20260905230049 | 56 | 280 | 7.0 | 17.0 | 0.00 | 0.05 | 0.00 | 79 | 1017.1 |
| 20260905230017 | 56 | 280 | 7.0 | 17.0 | 0.00 | 0.05 | 0.00 | 79 | 1017.1 |
| 20260905225535 | 56 | 290 | 7.0 | 15.0 | 0.00 | 0.05 | 0.00 | 79 | 1017.0 |
| 20260905225034 | 56 | 281 | 7.0 | 13.0 | 0.00 | 0.05 | 0.00 | 79 | 1017.1 |
| 20260905224532 | 56 | 282 | 6.0 | 11.0 | 0.00 | 0.05 | 0.00 | 79 | 1017.2 |
| 20260905224030 | 56 | 281 | 6.0 | 11.0 | 0.00 | 0.05 | 0.00 | 79 | 1017.2 |
| 20260905223528 | 56 | 279 | 6.0 | 13.0 | 0.00 | 0.05 | 0.00 | 79 | 1017.1 |
| 20260905223026 | 57 | 278 | 7.0 | 16.0 | 0.00 | 0.05 | 0.00 | 79 | 1017.0 |
| 20260905222524 | 57 | 283 | 7.0 | 16.0 | 0.00 | 0.05 | 0.00 | 78 | 1017.2 |
| 20260905222022 | 57 | 290 | 6.0 | 15.0 | 0.00 | 0.05 | 0.00 | 78 | 1017.2 |
| 20260905221520 | 57 | 289 | 6.0 | 14.0 | 0.00 | 0.05 | 0.00 | 77 | 1017.1 |
| 20260905221019 | 57 | 282 | 5.0 | 15.0 | 0.00 | 0.05 | 0.00 | 77 | 1017.1 |
| 20260905220517 | 57 | 286 | 5.0 | 10.0 | 0.00 | 0.05 | 0.00 | 77 | 1017.0 |
| 20260905220035 | 57 | 285 | 5.0 | 13.0 | 0.00 | 0.05 | 0.05 | 77 | 1017.0 |
| 20260905215533 | 57 | 288 | 6.0 | 15.0 | 0.00 | 0.05 | 0.05 | 76 | 1017.0 |
| 20260905215032 | 57 | 274 | 7.0 | 18.0 | 0.00 | 0.05 | 0.05 | 76 | 1016.9 |
| 20260905214529 | 57 | 284 | 6.0 | 16.0 | 0.00 | 0.05 | 0.05 | 76 | 1016.9 |
| 20260905214027 | 57 | 286 | 6.0 | 13.0 | 0.00 | 0.05 | 0.05 | 76 | 1017.0 |
| 20260905213526 | 58 | 295 | 7.0 | 11.0 | 0.00 | 0.05 | 0.05 | 76 | 1016.8 |
| 20260905213024 | 58 | 287 | 6.0 | 14.0 | 0.00 | 0.05 | 0.05 | 76 | 1016.7 |
| 20260905212522 | 58 | 285 | 5.0 | 13.0 | 0.00 | 0.05 | 0.05 | 76 | 1016.6 |
| 20260905212020 | 58 | 278 | 6.0 | 14.0 | 0.00 | 0.05 | 0.05 | 76 | 1016.7 |
| 20260905211518 | 58 | 278 | 7.0 | 15.0 | 0.00 | 0.05 | 0.05 | 76 | 1016.7 |
| 20260905211016 | 58 | 282 | 8.0 | 15.0 | 0.00 | 0.07 | 0.05 | 76 | 1016.6 |
| 20260905210534 | 58 | 284 | 7.0 | 13.0 | 0.00 | 0.08 | 0.05 | 75 | 1016.6 |
| 20260905210032 | 58 | 282 | 8.0 | 15.0 | 0.00 | 0.08 | 0.05 | 75 | 1016.5 |
| 20260905205531 | 58 | 280 | 8.0 | 15.0 | 0.00 | 0.08 | 0.05 | 74 | 1016.6 |
| 20260905205029 | 58 | 284 | 8.0 | 16.0 | 0.00 | 0.08 | 0.05 | 74 | 1016.6 |
| 20260905204527 | 58 | 279 | 8.0 | 17.0 | 0.00 | 0.08 | 0.05 | 74 | 1016.6 |
| 20260905204025 | 58 | 282 | 10.0 | 26.0 | 0.00 | 0.08 | 0.05 | 74 | 1016.6 |
| 20260905203523 | 58 | 279 | 9.0 | 22.0 | 0.00 | 0.09 | 0.05 | 75 | 1016.6 |
| 20260905203021 | 59 | 291 | 7.0 | 13.0 | 0.00 | 0.09 | 0.05 | 74 | 1016.5 |
| 20260905202520 | 59 | 289 | 8.0 | 19.0 | 0.00 | 0.09 | 0.05 | 74 | 1016.5 |
| 20260905202018 | 59 | 277 | 7.0 | 14.0 | 0.00 | 0.09 | 0.05 | 74 | 1016.4 |
| 20260905201516 | 59 | 279 | 6.0 | 15.0 | 0.00 | 0.09 | 0.05 | 74 | 1016.4 |
| 20260905201034 | 59 | 288 | 8.0 | 16.0 | 0.00 | 0.09 | 0.05 | 74 | 1016.3 |
| 20260905200532 | 59 | 266 | 8.0 | 19.0 | 0.00 | 0.09 | 0.05 | 75 | 1016.4 |
| 20260905200030 | 59 | 291 | 4.0 | 9.0 | 0.00 | 0.09 | 0.05 | 76 | 1016.4 |
| 20260905195528 | 59 | 284 | 4.0 | 11.0 | 0.00 | 0.09 | 0.05 | 76 | 1016.2 |
| 20260905195026 | 59 | 283 | 3.0 | 8.0 | 0.00 | 0.09 | 0.05 | 76 | 1016.4 |
| 20260905194524 | 59 | 278 | 3.0 | 8.0 | 0.00 | 0.09 | 0.05 | 76 | 1016.3 |
| 20260905194022 | 59 | 284 | 4.0 | 11.0 | 0.00 | 0.09 | 0.05 | 76 | 1016.3 |
| 20260905193520 | 59 | 275 | 4.0 | 10.0 | 0.00 | 0.09 | 0.05 | 76 | 1016.3 |
| 20260905193019 | 59 | 283 | 3.0 | 6.0 | 0.01 | 0.09 | 0.05 | 75 | 1016.2 |
| 20260905192516 | 59 | 283 | 3.0 | 10.0 | 0.01 | 0.09 | 0.05 | 75 | 1016.2 |
| 20260905192035 | 60 | 285 | 5.0 | 11.0 | 0.01 | 0.09 | 0.05 | 75 | 1016.5 |
| 20260905191532 | 60 | 268 | 3.0 | 6.0 | 0.01 | 0.09 | 0.05 | 74 | 1016.4 |
| 20260905191043 | 60 | 286 | 3.0 | 7.0 | 0.01 | 0.09 | 0.05 | 73 | 1016.6 |
| 20260905191030 | 60 | 272 | 2.0 | 7.0 | 0.01 | 0.09 | 0.05 | 73 | 1016.4 |
| 20260905190528 | 60 | 286 | 3.0 | 7.0 | 0.01 | 0.09 | 0.05 | 73 | 1016.6 |
| 20260905190026 | 60 | 270 | 3.0 | 4.0 | 0.01 | 0.09 | 0.05 | 73 | 1016.6 |
| 20260905185524 | 60 | 299 | 3.0 | 7.0 | 0.01 | 0.09 | 0.05 | 74 | 1016.7 |
| 20260905185023 | 60 | 289 | 3.0 | 7.0 | 0.01 | 0.09 | 0.05 | 73 | 1016.4 |
| 20260905184521 | 60 | 278 | 1.0 | 4.0 | 0.01 | 0.09 | 0.05 | 72 | 1016.4 |
| 20260905184018 | 60 | 277 | 3.0 | 8.0 | 0.01 | 0.09 | 0.05 | 73 | 1016.5 |
| 20260905183517 | 60 | 281 | 4.0 | 13.0 | 0.01 | 0.09 | 0.05 | 73 | 1016.6 |
| 20260905183035 | 60 | 286 | 4.0 | 9.0 | 0.00 | 0.08 | 0.04 | 72 | 1016.7 |
| 20260905182533 | 61 | 288 | 6.0 | 14.0 | 0.00 | 0.08 | 0.04 | 72 | 1016.9 |
| 20260905182031 | 61 | 286 | 6.0 | 15.0 | 0.00 | 0.08 | 0.04 | 69 | 1017.0 |
| 20260905181529 | 61 | 312 | 6.0 | 13.0 | 0.00 | 0.08 | 0.04 | 67 | 1016.9 |
| 20260905181028 | 62 | 303 | 5.0 | 10.0 | 0.00 | 0.08 | 0.04 | 66 | 1016.8 |
| 20260905180526 | 62 | 300 | 2.0 | 4.0 | 0.00 | 0.08 | 0.04 | 64 | 1016.6 |
| 20260905180024 | 62 | 324 | 1.0 | 4.0 | 0.00 | 0.08 | 0.04 | 63 | 1016.2 |
| 20260905175522 | 63 | 0.0 | 0.0 | 0.00 | 0.08 | 0.04 | 63 | 1016.1 | |
| 20260905175020 | 63 | 0.0 | 0.0 | 0.00 | 0.08 | 0.04 | 63 | 1016.1 | |
| 20260905174519 | 63 | 270 | 0.0 | 3.0 | 0.00 | 0.08 | 0.04 | 63 | 1016.1 |
| 20260905174016 | 63 | 0.0 | 0.0 | 0.00 | 0.08 | 0.04 | 62 | 1016.0 | |
| 20260905173534 | 63 | 0.0 | 0.0 | 0.00 | 0.08 | 0.04 | 62 | 1015.9 | |
| 20260905173033 | 63 | 284 | 1.0 | 3.0 | 0.00 | 0.08 | 0.04 | 62 | 1015.9 |
| 20260905172531 | 63 | 0.0 | 0.0 | 0.00 | 0.08 | 0.04 | 62 | 1015.8 | |
| 20260905172029 | 63 | 285 | 1.0 | 3.0 | 0.00 | 0.08 | 0.04 | 62 | 1015.7 |
| 20260905171527 | 63 | 290 | 1.0 | 3.0 | 0.00 | 0.08 | 0.04 | 62 | 1015.8 |
| 20260905171025 | 63 | 286 | 3.0 | 7.0 | 0.00 | 0.08 | 0.04 | 61 | 1015.9 |
| 20260905170523 | 63 | 289 | 1.0 | 4.0 | 0.00 | 0.08 | 0.04 | 61 | 1015.7 |
| 20260905170022 | 63 | 293 | 3.0 | 8.0 | 0.00 | 0.08 | 0.04 | 61 | 1015.8 |
| 20260905165519 | 64 | 286 | 3.0 | 8.0 | 0.00 | 0.08 | 0.04 | 61 | 1015.8 |
| 20260905165018 | 64 | 288 | 3.0 | 8.0 | 0.00 | 0.08 | 0.04 | 61 | 1015.7 |
| 20260905164515 | 64 | 299 | 3.0 | 8.0 | 0.00 | 0.08 | 0.04 | 61 | 1015.9 |
| 20260905164034 | 64 | 348 | 5.0 | 11.0 | 0.00 | 0.08 | 0.04 | 60 | 1015.8 |
| 20260905163532 | 64 | 315 | 4.0 | 10.0 | 0.00 | 0.08 | 0.04 | 59 | 1015.7 |
| 20260905163029 | 65 | 334 | 5.0 | 13.0 | 0.00 | 0.08 | 0.04 | 59 | 1015.8 |
| 20260905162527 | 65 | 312 | 5.0 | 11.0 | 0.00 | 0.08 | 0.04 | 58 | 1015.7 |
| 20260905162025 | 65 | 334 | 7.0 | 17.0 | 0.00 | 0.08 | 0.04 | 57 | 1015.7 |
| 20260905161523 | 66 | 324 | 7.0 | 19.0 | 0.00 | 0.08 | 0.04 | 56 | 1015.7 |
| 20260905161022 | 67 | 335 | 10.0 | 25.0 | 0.00 | 0.08 | 0.04 | 54 | 1015.8 |
| 20260905160520 | 68 | 291 | 6.0 | 13.0 | 0.00 | 0.08 | 0.04 | 53 | 1015.3 |
| 20260905160018 | 68 | 285 | 8.0 | 16.0 | 0.00 | 0.08 | 0.04 | 53 | 1015.2 |
| 20260905155516 | 68 | 286 | 7.0 | 14.0 | 0.00 | 0.08 | 0.04 | 52 | 1015.1 |
| 20260905155034 | 68 | 283 | 7.0 | 13.0 | 0.00 | 0.08 | 0.04 | 52 | 1015.1 |
| 20260905154532 | 67 | 281 | 8.0 | 18.0 | 0.00 | 0.08 | 0.04 | 52 | 1015.0 |
| 20260905154030 | 67 | 277 | 7.0 | 16.0 | 0.00 | 0.08 | 0.04 | 52 | 1015.0 |
| 20260905153528 | 67 | 282 | 6.0 | 11.0 | 0.00 | 0.08 | 0.04 | 52 | 1015.0 |
| 20260905153026 | 68 | 292 | 6.0 | 10.0 | 0.00 | 0.08 | 0.04 | 51 | 1014.9 |
| 20260905152524 | 68 | 285 | 7.0 | 13.0 | 0.00 | 0.08 | 0.04 | 50 | 1014.9 |
| 20260905152022 | 68 | 291 | 7.0 | 17.0 | 0.00 | 0.08 | 0.04 | 50 | 1014.9 |
| 20260905151521 | 68 | 284 | 5.0 | 11.0 | 0.00 | 0.08 | 0.04 | 50 | 1014.8 |
| 20260905151019 | 68 | 290 | 6.0 | 15.0 | 0.00 | 0.08 | 0.04 | 50 | 1014.8 |
| 20260905150517 | 68 | 282 | 7.0 | 13.0 | 0.00 | 0.08 | 0.04 | 49 | 1015.0 |
| 20260905150035 | 68 | 287 | 7.0 | 13.0 | 0.00 | 0.08 | 0.04 | 48 | 1014.8 |
| 20260905145533 | 69 | 278 | 10.0 | 18.0 | 0.00 | 0.08 | 0.04 | 48 | 1014.8 |
| 20260905145031 | 69 | 287 | 8.0 | 17.0 | 0.00 | 0.08 | 0.04 | 48 | 1014.8 |
| 20260905144529 | 69 | 289 | 8.0 | 17.0 | 0.00 | 0.08 | 0.04 | 48 | 1014.9 |
| 20260905144027 | 69 | 296 | 8.0 | 14.0 | 0.00 | 0.08 | 0.04 | 48 | 1014.8 |
| 20260905143525 | 68 | 290 | 10.0 | 21.0 | 0.00 | 0.08 | 0.04 | 47 | 1014.9 |
| 20260905143024 | 68 | 283 | 8.0 | 15.0 | 0.00 | 0.08 | 0.04 | 48 | 1015.0 |
| 20260905142522 | 68 | 291 | 9.0 | 22.0 | 0.00 | 0.08 | 0.04 | 47 | 1014.9 |
| 20260905142020 | 68 | 283 | 8.0 | 14.0 | 0.00 | 0.08 | 0.04 | 47 | 1015.0 |
| 20260905141518 | 69 | 281 | 9.0 | 24.0 | 0.00 | 0.08 | 0.04 | 47 | 1014.8 |
| 20260905141049 | 69 | 285 | 9.0 | 19.0 | 0.00 | 0.08 | 0.04 | 47 | 1014.8 |
| 20260905141016 | 69 | 285 | 9.0 | 19.0 | 0.00 | 0.08 | 0.04 | 47 | 1014.8 |
| 20260905140534 | 68 | 295 | 8.0 | 17.0 | 0.00 | 0.08 | 0.04 | 48 | 1014.8 |
| 20260905140032 | 68 | 292 | 8.0 | 21.0 | 0.00 | 0.08 | 0.04 | 48 | 1014.7 |
| 20260905135531 | 68 | 277 | 9.0 | 19.0 | 0.00 | 0.08 | 0.04 | 48 | 1014.7 |
| 20260905135028 | 68 | 284 | 11.0 | 21.0 | 0.00 | 0.08 | 0.04 | 47 | 1014.7 |
| 20260905134527 | 69 | 300 | 9.0 | 19.0 | 0.00 | 0.08 | 0.04 | 47 | 1014.7 |
| 20260905134025 | 69 | 294 | 7.0 | 17.0 | 0.00 | 0.08 | 0.04 | 47 | 1014.7 |
| 20260905133523 | 69 | 296 | 8.0 | 19.0 | 0.00 | 0.08 | 0.04 | 49 | 1014.6 |
| 20260905133021 | 69 | 286 | 8.0 | 24.0 | 0.00 | 0.08 | 0.04 | 48 | 1014.6 |
| 20260905132519 | 70 | 292 | 11.0 | 22.0 | 0.00 | 0.08 | 0.04 | 48 | 1014.5 |
| 20260905132017 | 69 | 300 | 9.0 | 22.0 | 0.00 | 0.08 | 0.04 | 49 | 1014.5 |
| 20260905131536 | 69 | 290 | 8.0 | 21.0 | 0.00 | 0.08 | 0.04 | 49 | 1014.5 |
| 20260905131033 | 69 | 287 | 10.0 | 21.0 | 0.00 | 0.08 | 0.04 | 48 | 1014.5 |
| 20260905130532 | 69 | 293 | 11.0 | 23.0 | 0.00 | 0.08 | 0.04 | 48 | 1014.6 |
| 20260905130030 | 69 | 282 | 12.0 | 24.0 | 0.00 | 0.08 | 0.04 | 51 | 1014.6 |
| 20260905125528 | 69 | 280 | 8.0 | 17.0 | 0.00 | 0.08 | 0.04 | 53 | 1014.5 |
| 20260905125027 | 69 | 276 | 8.0 | 17.0 | 0.00 | 0.08 | 0.04 | 52 | 1014.6 |
| 20260905124525 | 68 | 291 | 9.0 | 17.0 | 0.00 | 0.08 | 0.04 | 53 | 1014.6 |
| 20260905124023 | 69 | 283 | 7.0 | 16.0 | 0.00 | 0.08 | 0.04 | 53 | 1014.6 |
| 20260905123521 | 69 | 281 | 9.0 | 22.0 | 0.00 | 0.08 | 0.04 | 52 | 1014.5 |
| 20260905123019 | 70 | 287 | 9.0 | 17.0 | 0.00 | 0.08 | 0.04 | 52 | 1014.6 |
| 20260905122517 | 69 | 286 | 10.0 | 22.0 | 0.00 | 0.08 | 0.04 | 52 | 1014.6 |
| 20260905122035 | 69 | 303 | 11.0 | 22.0 | 0.00 | 0.08 | 0.04 | 51 | 1014.5 |
| 20260905121533 | 69 | 287 | 13.0 | 25.0 | 0.00 | 0.08 | 0.04 | 52 | 1014.5 |
| 20260905121031 | 68 | 284 | 10.0 | 22.0 | 0.00 | 0.08 | 0.04 | 52 | 1014.5 |
| 20260905120529 | 68 | 292 | 10.0 | 27.0 | 0.00 | 0.08 | 0.04 | 54 | 1014.6 |
| 20260905120028 | 67 | 282 | 9.0 | 21.0 | 0.00 | 0.08 | 0.04 | 56 | 1014.5 |
| 20260905115526 | 67 | 283 | 10.0 | 18.0 | 0.00 | 0.08 | 0.04 | 57 | 1014.6 |
| 20260905115023 | 68 | 281 | 10.0 | 22.0 | 0.00 | 0.08 | 0.04 | 56 | 1014.4 |
| 20260905114522 | 68 | 282 | 9.0 | 21.0 | 0.00 | 0.08 | 0.04 | 56 | 1014.4 |
| 20260905114020 | 68 | 287 | 6.0 | 14.0 | 0.00 | 0.08 | 0.04 | 58 | 1014.4 |
| 20260905113518 | 68 | 289 | 9.0 | 19.0 | 0.00 | 0.08 | 0.04 | 57 | 1014.4 |
| 20260905113049 | 68 | 285 | 9.0 | 23.0 | 0.00 | 0.08 | 0.04 | 55 | 1014.4 |
| 20260905113016 | 68 | 285 | 9.0 | 23.0 | 0.00 | 0.08 | 0.04 | 55 | 1014.4 |
| 20260905112534 | 69 | 297 | 10.0 | 23.0 | 0.00 | 0.08 | 0.04 | 55 | 1014.2 |
| 20260905112032 | 69 | 287 | 9.0 | 17.0 | 0.00 | 0.08 | 0.04 | 55 | 1014.4 |
| 20260905111530 | 69 | 268 | 9.0 | 17.0 | 0.00 | 0.08 | 0.04 | 55 | 1014.2 |
| 20260905111028 | 69 | 299 | 10.0 | 21.0 | 0.00 | 0.08 | 0.04 | 55 | 1014.2 |
| 20260905110526 | 68 | 299 | 12.0 | 25.0 | 0.00 | 0.08 | 0.04 | 57 | 1014.1 |
| 20260905110025 | 68 | 278 | 10.0 | 22.0 | 0.00 | 0.08 | 0.04 | 57 | 1014.1 |
| 20260905105522 | 68 | 284 | 8.0 | 18.0 | 0.00 | 0.08 | 0.04 | 57 | 1014.1 |
| 20260905105020 | 68 | 292 | 9.0 | 16.0 | 0.00 | 0.08 | 0.04 | 59 | 1014.1 |
| 20260905104518 | 67 | 282 | 8.0 | 19.0 | 0.00 | 0.08 | 0.04 | 59 | 1014.2 |
| 20260905104049 | 67 | 286 | 11.0 | 25.0 | 0.00 | 0.08 | 0.04 | 58 | 1014.2 |
| 20260905104016 | 67 | 286 | 11.0 | 25.0 | 0.00 | 0.08 | 0.04 | 58 | 1014.2 |
| 20260905103535 | 67 | 291 | 11.0 | 26.0 | 0.00 | 0.08 | 0.04 | 59 | 1014.1 |
| 20260905103033 | 67 | 285 | 9.0 | 17.0 | 0.00 | 0.08 | 0.04 | 60 | 1014.1 |
| 20260905102531 | 67 | 283 | 10.0 | 18.0 | 0.00 | 0.08 | 0.04 | 59 | 1013.9 |
| 20260905102029 | 68 | 291 | 10.0 | 23.0 | 0.00 | 0.08 | 0.04 | 58 | 1013.9 |
| 20260905101527 | 68 | 285 | 11.0 | 29.0 | 0.00 | 0.08 | 0.04 | 58 | 1013.8 |
| 20260905101025 | 68 | 273 | 11.0 | 27.0 | 0.00 | 0.08 | 0.04 | 60 | 1013.8 |
| 20260905100523 | 67 | 292 | 8.0 | 19.0 | 0.00 | 0.08 | 0.04 | 61 | 1013.8 |
| 20260905100021 | 67 | 274 | 9.0 | 18.0 | 0.00 | 0.08 | 0.04 | 60 | 1013.9 |
| 20260905095520 | 67 | 290 | 7.0 | 19.0 | 0.00 | 0.08 | 0.04 | 61 | 1013.8 |
| 20260905095017 | 67 | 285 | 10.0 | 26.0 | 0.00 | 0.08 | 0.04 | 59 | 1013.9 |
| 20260905094535 | 67 | 284 | 10.0 | 21.0 | 0.00 | 0.08 | 0.04 | 61 | 1013.8 |
| 20260905094033 | 67 | 280 | 7.0 | 14.0 | 0.00 | 0.08 | 0.04 | 60 | 1013.7 |
| 20260905093531 | 67 | 281 | 12.0 | 23.0 | 0.00 | 0.08 | 0.04 | 60 | 1013.8 |
| 20260905093029 | 67 | 279 | 9.0 | 22.0 | 0.00 | 0.08 | 0.04 | 60 | 1013.8 |
| 20260905092527 | 67 | 276 | 11.0 | 25.0 | 0.00 | 0.08 | 0.04 | 60 | 1013.8 |
| 20260905092025 | 66 | 276 | 10.0 | 21.0 | 0.00 | 0.08 | 0.04 | 63 | 1013.7 |
| 20260905091522 | 66 | 284 | 9.0 | 22.0 | 0.00 | 0.08 | 0.04 | 64 | 1013.7 |
| 20260905091021 | 66 | 278 | 11.0 | 27.0 | 0.00 | 0.08 | 0.04 | 62 | 1013.7 |
| 20260905090519 | 66 | 273 | 10.0 | 21.0 | 0.00 | 0.08 | 0.04 | 64 | 1013.6 |
| 20260905090049 | 65 | 278 | 10.0 | 21.0 | 0.00 | 0.08 | 0.04 | 65 | 1013.6 |
| 20260905090017 | 65 | 278 | 10.0 | 21.0 | 0.00 | 0.08 | 0.04 | 65 | 1013.6 |
| 20260905085536 | 65 | 277 | 10.0 | 21.0 | 0.00 | 0.08 | 0.04 | 65 | 1013.5 |
| 20260905085033 | 65 | 283 | 8.0 | 17.0 | 0.00 | 0.08 | 0.04 | 66 | 1013.6 |
| 20260905084531 | 65 | 271 | 9.0 | 21.0 | 0.00 | 0.08 | 0.04 | 66 | 1013.5 |
| 20260905084029 | 65 | 295 | 8.0 | 17.0 | 0.00 | 0.08 | 0.04 | 67 | 1013.6 |
| 20260905083527 | 64 | 281 | 10.0 | 22.0 | 0.00 | 0.08 | 0.04 | 68 | 1013.6 |
| 20260905083025 | 64 | 291 | 10.0 | 26.0 | 0.00 | 0.08 | 0.04 | 70 | 1013.7 |
| 20260905082523 | 64 | 282 | 8.0 | 19.0 | 0.00 | 0.08 | 0.04 | 71 | 1013.6 |